sat.trackr.live / text

‹ back to catalog

SITRO-AIS 48

NORAD 61771 · 2024-199AN

PAYLOAD ACTIVE UNKNOWN

§ Identity

Operator
Country
CIS
Launch date
2024-11-04
Launch site
VOSTO
Launch vehicle
Mass (kg)
RCS (m²)

External: N2YO · Heavens-Above · Gunter

§ Orbital elements

Epoch: 2026-09-22T22:25:12.958464Z

Period
91.82 min
Inclination
97.2722°
Eccentricity
0.0002592
Mean motion
15.68292890 rev/d
Perigee alt
362.0 km
Apogee alt
365.5 km
Semi-major
6,741.9 km
B*
5.7245e-4
RAAN
144.7619°
Arg perigee
283.1587°
Mean anomaly
76.9386°
Rev number
14,969

§ Raw data

SITRO-AIS 481 61771U 24199AN  26265.93417776  .00064317  00000+0  57245-3 0  99982 61771  97.2722 144.7619 0002592 283.1587  76.9386 15.68292890149695

JSON: /api/v1/satellites/61771 · /tle

For live sub-satellite position, see the globe view (requires WebGL).

§ Visibility from observer

Set your observer location to see the next 7 days of passes ≥ 10°. The values pass through the URL so the page stays shareable.

No JS? Fill the form by hand. The geolocation button needs JavaScript.

§ Radio — SatNOGS DB

ModeDescriptionDownlinkUplink
GMSK USP Mode U - GMSK2k4 - USP 401.245 MHz

1 transmitter · refreshed weekly from db.satnogs.org